Redwood Falls, MN

2:58 AM CST on November 20, 2019 (GMT -0600)
Redwood Falls Municipal

Weather History for KRWF - October, 2019

Change the Weather History Date:

Sunday, October 13, 2019

  Actual Average Record
Temperature  
Mean Temperature 38 °F -  
Max Temperature 43 °F 61 °F 85 °F (1956)
Min Temperature 33 °F 40 °F 19 °F (1937)
Degree Days  
Heating Degree Days 28    
Moisture  
Dew Point 30 °F    
Average Humidity 76    
Maximum Humidity 89    
Minimum Humidity 62    
Precipitation  
Precipitation 0.00 in - - ()
Sea Level Pressure  
Sea Level Pressure 29.84 in    
Wind  
Wind Speed 13 mph ()    
Max Wind Speed 20 mph    
Max Gust Speed 29 mph    
Visibility 10.0 miles    
Events      
Averages and records for this station are not official NWS values.
T = Trace of Precipitation, MM = Missing Value Source: Averaged Metar Reports

Daily Weather History Graph

Daily Weather History Graph

Search for Another Location

Airport or City:

Astronomy

Oct. 13, 2019 Rise Set
Actual Time 7:32 AM CDT 6:39 PM CDT
Civil Twilight 7:03 AM CDT 7:08 PM CDT
Nautical Twilight 6:29 AM CDT 7:42 PM CDT
Astronomical Twilight 5:55 AM CDT 8:16 PM CDT
Moon 7:04 PM CDT (10/13) 7:04 AM CDT (10/13)
Length of Visible Light 12h 05m
Length of Day
11h 06m
Full, 100% of the Moon is Illuminated
Oct 13
Full
Oct 13
Full
Oct 21
Last Quarter
Oct 27
New
Nov 4
First Quarter

Hourly Weather History & Observations

Time (CDT) Temp. Windchill Dew Point Humidity Pressure Visibility Wind Dir Wind Speed Gust Speed Precip Events Conditions
12:53 AM 35.1 °F 25.5 °F 28.9 °F 78% 29.74 in 10.0 mi West 15.0 mph - N/A   Unknown
1:04 AM 35.1 °F 24.8 °F 28.9 °F 78% 29.71 in 10.0 mi West 17.3 mph 28.8 mph N/A   Overcast
1:41 AM 34.0 °F 24.6 °F 28.9 °F 82% 29.71 in 10.0 mi West 13.8 mph - N/A   Overcast
1:53 AM 34.0 °F 23.8 °F 28.9 °F 82% 29.74 in 10.0 mi West 16.1 mph - N/A   Overcast
2:22 AM 35.1 °F 24.5 °F 28.9 °F 78% 29.72 in 10.0 mi West 18.4 mph 26.5 mph N/A   Overcast
2:53 AM 35.1 °F 25.5 °F 28.9 °F 78% 29.75 in 10.0 mi West 15.0 mph 25.3 mph N/A   Overcast
3:53 AM 35.1 °F 26.4 °F 28.9 °F 78% 29.75 in 10.0 mi West 12.7 mph - N/A   Overcast
4:53 AM 35.1 °F 25.5 °F 28.9 °F 78% 29.76 in 10.0 mi West 15.0 mph 23.0 mph N/A   Overcast
5:53 AM 35.1 °F 25.5 °F 28.9 °F 78% 29.77 in 10.0 mi West 15.0 mph 25.3 mph N/A   Overcast
6:53 AM 35.1 °F 26.4 °F 30.0 °F 82% 29.78 in 10.0 mi West 12.7 mph - N/A   Unknown
7:13 AM 35.1 °F 26.4 °F 30.0 °F 82% 29.75 in 10.0 mi West 12.7 mph - N/A   Overcast
7:53 AM 35.1 °F 25.9 °F 30.0 °F 82% 29.79 in 10.0 mi West 13.8 mph - N/A   Overcast
8:53 AM 36.0 °F 26.7 °F 30.0 °F 79% 29.80 in 10.0 mi West 15.0 mph - N/A   Overcast
9:53 AM 36.0 °F 27.1 °F 30.0 °F 79% 29.81 in 10.0 mi West 13.8 mph 23.0 mph N/A   Overcast
10:53 AM 37.0 °F 28.5 °F 30.0 °F 76% 29.84 in 10.0 mi WNW 13.8 mph 24.2 mph N/A   Overcast
11:53 AM 39.0 °F 29.6 °F 28.9 °F 67% 29.85 in 10.0 mi WNW 18.4 mph 26.5 mph N/A   Overcast
12:53 PM 41.0 °F 32.2 °F 30.0 °F 65% 29.86 in 10.0 mi WNW 18.4 mph 25.3 mph N/A   Overcast
1:53 PM 41.0 °F 31.9 °F 30.0 °F 65% 29.87 in 10.0 mi WNW 19.6 mph 26.5 mph N/A   Overcast
2:06 PM 41.0 °F 32.2 °F 28.9 °F 62% 29.84 in 10.0 mi WNW 18.4 mph 26.5 mph N/A   Overcast
2:53 PM 42.1 °F 34.2 °F 30.0 °F 62% 29.88 in 10.0 mi NW 16.1 mph 25.3 mph N/A   Overcast
3:53 PM 41.0 °F 33.1 °F 30.0 °F 65% 29.89 in 10.0 mi WNW 15.0 mph 26.5 mph N/A   Overcast
4:53 PM 39.9 °F 32.9 °F 30.9 °F 70% 29.91 in 10.0 mi NW 11.5 mph 20.7 mph N/A   Overcast
5:18 PM 39.9 °F 32.5 °F 30.9 °F 70% 29.89 in 10.0 mi NW 12.7 mph 18.4 mph 0.00 in   Overcast
5:53 PM 39.9 °F 33.9 °F 30.9 °F 70% 29.93 in 10.0 mi NW 9.2 mph 18.4 mph 0.00 in   Overcast
6:49 PM 39.2 °F 32.0 °F 30.2 °F 70% 29.91 in 10.0 mi WNW 11.5 mph - N/A   Overcast
6:53 PM 39.0 °F 32.8 °F 30.9 °F 73% 29.94 in 10.0 mi West 9.2 mph - N/A   Overcast
7:53 PM 37.9 °F 32.1 °F 30.9 °F 76% 29.96 in 10.0 mi WNW 8.1 mph - N/A   Overcast
8:53 PM 35.1 °F 28.6 °F 30.0 °F 82% 29.99 in 10.0 mi West 8.1 mph - N/A   Scattered Clouds
9:53 PM 35.1 °F 29.3 °F 30.9 °F 85% 30.00 in 10.0 mi West 6.9 mph - N/A   Mostly Cloudy
10:53 PM 33.1 °F 26.9 °F 30.0 °F 89% 30.01 in 10.0 mi West 6.9 mph - N/A   Partly Cloudy
11:53 PM 34.0 °F 28.8 °F 30.0 °F 85% 30.00 in 10.0 mi West 5.8 mph - N/A   Clear